Weather History for La Paz, Mexico

Change the Weather History Date:

Sunday, January 27, 2013

  Actual Average Record
Temperature  
Mean Temperature 74 °F -  
Max Temperature 86 °F 76 °F 86 °F (2013)
Min Temperature 62 °F 53 °F 41 °F (2012)
Cooling Degree Days 9    
Growing Degree Days 24 (Base 50)    
Moisture  
Dew Point 56 °F    
Average Humidity 55    
Maximum Humidity 88    
Minimum Humidity 25    
Precipitation  
Precipitation 0.00 in - - ()
Sea Level Pressure  
Sea Level Pressure 30.05 in    
Wind  
Wind Speed 5 mph ()    
Max Wind Speed 17 mph    
Max Gust Speed -    
Visibility 10.7 miles    
Events      
Averages and records for this station are not official NWS values.
T = Trace of Precipitation, MM = Missing Value Source: Averaged Metar Reports

Daily Weather History Graph

Daily Weather History Graph

Search for Another Location

Airport:

Trip Planner

Search our weather history database for the weather conditions in past years. The results will help you decide how hot, cold, wet, or windy it might be!

Date:

Astronomy

Jan. 27, 2013 Rise Set
Actual Time 7:04 AM MST 6:04 PM MST
Civil Twilight 6:40 AM MST 6:28 PM MST
Nautical Twilight 6:13 AM MST 6:55 PM MST
Astronomical Twilight 5:46 AM MST 7:22 PM MST
Moon 6:50 PM MST (1/27) 7:08 AM MST (1/27)
Length of Visible Light 11h 47m
Length of Day
11h 00m
Full, 100% of the Moon is Illuminated
Jan 27
Full
Feb 3
Last Quarter
Feb 10
New
Feb 17
First Quarter
Feb 25
Full

Hourly Weather History & Observations

Time (MST) Temp. Dew Point Humidity Pressure Visibility Wind Dir Wind Speed Gust Speed Precip Events Conditions
4:50 AM 67 °F 62 °F 77% 30.01 in 2 mi North 2.2 mph - -  
6:13 AM 60.8 °F 57.2 °F 88% 30.02 in 10.0 mi South 6.9 mph - N/A   Clear
6:44 AM 60.8 °F 57.2 °F 88% 30.03 in 10.0 mi South 6.9 mph - N/A   Clear
7:50 AM 69 °F 59 °F 62% 30.04 in 12 mi South 2.2 mph - -  
7:53 AM 60.8 °F 57.2 °F 88% 30.10 in 10.0 mi SSE 4.6 mph - N/A   Clear
8:42 AM 68.0 °F 59.0 °F 73% 30.06 in 10.0 mi SSE 4.6 mph - N/A   Clear
9:48 AM 75.2 °F 57.2 °F 53% 30.07 in 10.0 mi South 3.5 mph - N/A   Partly Cloudy
10:40 AM 80 °F 60 °F 39% 30.10 in 19 mi South 4.5 mph - -   Partly Cloudy
10:57 AM 80.6 °F 51.8 °F 37% 30.12 in 10.0 mi Calm Calm - N/A   Partly Cloudy
11:44 AM 80.6 °F 51.8 °F 37% 30.05 in 10.0 mi NNE 10.4 mph - N/A   Partly Cloudy
12:44 PM 80.6 °F 51.8 °F 37% 30.02 in 10.0 mi North 9.2 mph - N/A   Partly Cloudy
1:40 PM 85 °F 55 °F 25% 30.04 in 19 mi North 6.7 mph - -   Scattered Clouds
1:42 PM 77.0 °F 59.0 °F 54% 29.97 in 15.0 mi ESE 17.3 mph - N/A   Scattered Clouds
1:50 PM 72 °F 53 °F 41% 30.15 in 19 mi South 6.7 mph - -   Clear
2:46 PM 82.4 °F 50.0 °F 32% 29.99 in 10.0 mi North 11.5 mph - N/A   Clear
3:48 PM 80.6 °F 50.0 °F 34% 29.99 in 10.0 mi North 9.2 mph - N/A   Scattered Clouds
4:48 PM 80.6 °F 51.8 °F 37% 30.09 in 10.0 mi NW 5.8 mph - N/A   Clear
4:50 PM 82 °F 57 °F 31% 29.99 in 19 mi North 4.5 mph - -  
5:42 PM 78.8 °F 53.6 °F 42% 30.01 in 10.0 mi Calm Calm - N/A   Clear
6:44 PM 71.6 °F 55.4 °F 57% 30.03 in 10.0 mi West 9.2 mph - N/A   Clear
7:47 PM 69.8 °F 55.4 °F 60% 30.14 in 10.0 mi South 9.2 mph - N/A   Clear
7:50 PM 72 °F 58 °F 53% 30.04 in 2 mi South 4.5 mph - -  
8:47 PM 66.2 °F 55.4 °F 68% 30.06 in 10.0 mi Calm Calm - N/A   Clear
9:46 PM 64.4 °F 53.6 °F 68% 30.07 in 10.0 mi South 6.9 mph - N/A   Clear
10:43 PM 62.6 °F 55.4 °F 77% 30.17 in 10.0 mi SSE 6.9 mph - N/A   Clear
10:45 PM 67 °F 58 °F 66% 30.04 in 2 mi South 6.7 mph - -